Marchen Maersk — OUIY2 — position and weather

sailwx.info

Track history (hours):
 
Tides and Currents Weather Stations Pressure Air Temp Water Temp Dewpoint Dewpoint Depression Visibility Wind Speed Wind Dir Waves Ship Positions

Marchen Maersk

Last reported at 2014-Oct-04 06:00 UTC. Time now 2014-Oct-23 01:49 UTC.
Position N 51°36' W 151°42'.
Warning: this ship's position is 18 days out of date.

Length 367 m; draft 11 m.

Type: Ship (hazmat cat A). MMSI: 220594000.

Wind from 210 at 16 knots

Barometer 1006.0 mb
Air temperature 13.0 ° C
Visibility: greater than 10.8 NM
Dewpoint 6.5 ° C
Water temperature 12.0 ° C

Date/timePositionNaut miles runAvg speedWind from/ knotsBaromVisibWave heightAir tempDewpointWater temp
2014-Oct-04 06:00N 51°36' W 151°42'15012.5 210 / 161006.010.8 13.0 6.512.0
2014-Oct-03 18:00N 50°24' W 148°12'13711.4 290 / 241001.010.8 14.3 7.114.0
2014-Oct-03 06:00N 49°18' W 145°06'14612.1 220 / 37997.0 5.4 15.811.915.0
2014-Oct-02 18:00N 48°00' W 142°00'60712.6 200 / 381006.0 5.4 16.515.116.0
2014-Sep-30 18:00N 41°54' W 130°36'13411.2 350 / 141027.010.8 1.019.810.719.0
2014-Sep-30 06:00N 40°24' W 128°24'18210.3 020 / 171023.010.8 18.511.719.0
2014-Sep-29 12:23N 38°12' W 125°41'1311.0
2014-Sep-29 11:11N 38°03' W 125°29'810.9
2014-Sep-29 10:26N 37°58' W 125°22'1110.8
2014-Sep-29 09:27N 37°50' W 125°12'4212.3
2014-Sep-29 06:00N 37°24' W 124°30'13 7.6 010 / 181018.010.8 1.517.413.418.0
2014-Sep-29 04:15N 37°12' W 124°24'1010.6
2014-Sep-29 03:20N 37°05' W 124°15'1311.1
2014-Sep-29 02:08N 36°55' W 124°03'711.2
2014-Sep-29 01:31N 36°50' W 123°57'4611.3
2014-Sep-28 21:29N 36°19' W 123°17'1111.8
2014-Sep-28 20:33N 36°11' W 123°07'1111.4
2014-Sep-28 19:33N 36°03' W 122°57'1111.5
2014-Sep-28 18:33N 35°54' W 122°47'1527.3
2014-Sep-28 18:00N 35°48' W 122°30'612.1 330 / 91016.010.8 1.019.014.118.0
2014-Sep-28 17:32N 35°46' W 122°36'1111.6
2014-Sep-28 16:33N 35°38' W 122°26'1111.4
2014-Sep-28 15:33N 35°30' W 122°17'1111.0
2014-Sep-28 14:33N 35°22' W 122°07'1211.3
2014-Sep-28 13:31N 35°14' W 121°57'1311.5
2014-Sep-28 12:23N 35°05' W 121°45'9011.1
2014-Sep-28 04:15N 34°17' W 120°13'810.9
2014-Sep-28 03:33N 34°15' W 120°04'1110.7
2014-Sep-28 02:33N 34°12' W 119°51'1010.0
2014-Sep-28 01:33N 34°10' W 119°40'10 9.8
2014-Sep-28 00:33N 34°07' W 119°28'9 9.1
2014-Sep-27 23:33N 34°05' W 119°18'10 9.7
2014-Sep-27 22:33N 34°00' W 119°07'1110.9
2014-Sep-27 21:33N 33°55' W 118°56'35 8.8
2014-Sep-27 17:33N 33°43' W 118°16'1 0.9
2014-Sep-27 16:24N 33°44' W 118°15'0 0.0
2014-Sep-27 14:33N 33°44' W 118°15'0 0.0
2014-Sep-27 13:12N 33°44' W 118°15'0 0.0
2014-Sep-27 12:30N 33°44' W 118°15'0 0.0
2014-Sep-27 11:30N 33°44' W 118°15'0 0.0
2014-Sep-27 10:30N 33°44' W 118°15'0 0.0
2014-Sep-27 09:30N 33°44' W 118°15'0 0.0
2014-Sep-27 08:30N 33°44' W 118°15'0 0.0
2014-Sep-27 07:33N 33°44' W 118°15'0 0.0
2014-Sep-27 06:12N 33°44' W 118°15'0 0.0
2014-Sep-27 05:30N 33°44' W 118°15'0 0.0
2014-Sep-27 04:12N 33°44' W 118°15'0 0.0
2014-Sep-27 03:24N 33°44' W 118°15'0 0.0
2014-Sep-27 02:09N 33°44' W 118°15'0 0.0
2014-Sep-27 00:06N 33°44' W 118°15'0 0.0
2014-Sep-26 23:18N 33°44' W 118°15'0 0.0
2014-Sep-26 22:12N 33°44' W 118°15'0 0.0
2014-Sep-26 21:33N 33°44' W 118°15'0 0.0
2014-Sep-26 20:33N 33°44' W 118°15'0 0.0
2014-Sep-26 19:27N 33°44' W 118°15'0 0.0
2014-Sep-26 18:27N 33°44' W 118°15'0 0.0
2014-Sep-26 17:33N 33°44' W 118°15'0 0.0
2014-Sep-26 16:33N 33°44' W 118°15'0 0.0
2014-Sep-26 15:33N 33°44' W 118°15'0 0.0
2014-Sep-26 14:30N 33°44' W 118°15'0 0.0
2014-Sep-26 13:30N 33°44' W 118°15'0 0.0
2014-Sep-26 12:30N 33°44' W 118°15'0 0.0
2014-Sep-26 11:30N 33°44' W 118°15'0 0.0
2014-Sep-26 10:33N 33°44' W 118°15'0 0.0
2014-Sep-26 09:33N 33°44' W 118°15'0 0.0
2014-Sep-26 08:33N 33°44' W 118°15'0 0.0
2014-Sep-26 07:33N 33°44' W 118°15'0 0.0
2014-Sep-26 06:33N 33°44' W 118°15'0 0.0
2014-Sep-26 05:33N 33°44' W 118°15'0 0.0
2014-Sep-26 04:33N 33°44' W 118°15'0 0.0
2014-Sep-26 03:33N 33°44' W 118°15'0 0.0
2014-Sep-26 02:33N 33°44' W 118°15'0 0.0
2014-Sep-26 01:33N 33°44' W 118°15'0 0.0
2014-Sep-26 00:33N 33°44' W 118°15'0 0.0
2014-Sep-25 23:33N 33°44' W 118°15'0 0.0
2014-Sep-25 22:33N 33°44' W 118°15'0 0.0
2014-Sep-25 21:33N 33°44' W 118°15'0 0.0
2014-Sep-25 20:33N 33°44' W 118°15'0 0.0
2014-Sep-25 19:33N 33°44' W 118°15'0 0.0
2014-Sep-25 18:33N 33°44' W 118°15'0 0.0
2014-Sep-25 17:33N 33°44' W 118°15'0 0.0
2014-Sep-25 16:33N 33°44' W 118°15'0 0.0
2014-Sep-25 15:33N 33°44' W 118°15'0 0.0
2014-Sep-25 14:33N 33°44' W 118°15'0 0.0
2014-Sep-25 13:33N 33°44' W 118°15'0 0.0
2014-Sep-25 12:33N 33°44' W 118°15'0 0.0
2014-Sep-25 11:33N 33°44' W 118°15'0 0.0
2014-Sep-25 10:33N 33°44' W 118°15'0 0.0
2014-Sep-25 09:33N 33°44' W 118°15'0 0.0
2014-Sep-25 08:33N 33°44' W 118°15'0 0.0
2014-Sep-25 07:33N 33°44' W 118°15'0 0.0
2014-Sep-25 06:33N 33°44' W 118°15'0 0.0
2014-Sep-25 05:33N 33°44' W 118°15'0 0.0
2014-Sep-25 04:33N 33°44' W 118°15'0 0.0
2014-Sep-25 03:33N 33°44' W 118°15'0 0.0
2014-Sep-25 02:33N 33°44' W 118°15'0 0.0
2014-Sep-25 01:33N 33°44' W 118°15'0 0.0
2014-Sep-25 00:33N 33°44' W 118°15'0 0.0
2014-Sep-24 23:33N 33°44' W 118°15'0 0.0
2014-Sep-24 22:33N 33°44' W 118°15'0 0.0
2014-Sep-24 21:33N 33°44' W 118°15'0 0.0
2014-Sep-24 20:33N 33°44' W 118°15'0 0.0
2014-Sep-24 19:33N 33°44' W 118°15'0 0.0
2014-Sep-24 18:33N 33°44' W 118°15'0 0.0
2014-Sep-24 17:33N 33°44' W 118°15'0 0.0
2014-Sep-24 16:33N 33°44' W 118°15'0 0.0
2014-Sep-24 15:33N 33°44' W 118°15'0 0.0
2014-Sep-24 14:33N 33°44' W 118°15'0 0.0
2014-Sep-24 13:33N 33°44' W 118°15'0 0.0
2014-Sep-24 12:30N 33°44' W 118°15'0 0.0
2014-Sep-24 11:33N 33°44' W 118°15'0 0.0
2014-Sep-24 10:33N 33°44' W 118°15'0 0.0
2014-Sep-24 09:33N 33°44' W 118°15'0 0.0
2014-Sep-24 08:33N 33°44' W 118°15'0 0.0
2014-Sep-24 07:33N 33°44' W 118°15'0 0.0
2014-Sep-24 06:33N 33°44' W 118°15'  
Track history (hours):
 
Tides and Currents Weather Stations Pressure Air Temp Water Temp Dewpoint Dewpoint Depression Visibility Wind Speed Wind Dir Waves Ship Positions

Marchen Maersk

Last reported at 2014-Oct-04 06:00 UTC. Time now 2014-Oct-23 01:49 UTC.
Position N 51°36' W 151°42'.
Warning: this ship's position is 18 days out of date.

Length 367 m; draft 11 m.

Type: Ship (hazmat cat A). MMSI: 220594000.

Wind from 210 at 16 knots

Barometer 1006.0 mb
Air temperature 13.0 ° C
Visibility: greater than 10.8 NM
Dewpoint 6.5 ° C
Water temperature 12.0 ° C

Date/timePositionNaut miles runAvg speedWind from/ knotsBaromVisibWave heightAir tempDewpointWater temp
2014-Oct-04 06:00N 51°36' W 151°42'15012.5 210 / 161006.010.8 13.0 6.512.0
2014-Oct-03 18:00N 50°24' W 148°12'13711.4 290 / 241001.010.8 14.3 7.114.0
2014-Oct-03 06:00N 49°18' W 145°06'14612.1 220 / 37997.0 5.4 15.811.915.0
2014-Oct-02 18:00N 48°00' W 142°00'60712.6 200 / 381006.0 5.4 16.515.116.0
2014-Sep-30 18:00N 41°54' W 130°36'13411.2 350 / 141027.010.8 1.019.810.719.0
2014-Sep-30 06:00N 40°24' W 128°24'18210.3 020 / 171023.010.8 18.511.719.0
2014-Sep-29 12:23N 38°12' W 125°41'1311.0
2014-Sep-29 11:11N 38°03' W 125°29'810.9
2014-Sep-29 10:26N 37°58' W 125°22'1110.8
2014-Sep-29 09:27N 37°50' W 125°12'4212.3
2014-Sep-29 06:00N 37°24' W 124°30'13 7.6 010 / 181018.010.8 1.517.413.418.0
2014-Sep-29 04:15N 37°12' W 124°24'1010.6
2014-Sep-29 03:20N 37°05' W 124°15'1311.1
2014-Sep-29 02:08N 36°55' W 124°03'711.2
2014-Sep-29 01:31N 36°50' W 123°57'4611.3
2014-Sep-28 21:29N 36°19' W 123°17'1111.8
2014-Sep-28 20:33N 36°11' W 123°07'1111.4
2014-Sep-28 19:33N 36°03' W 122°57'1111.5
2014-Sep-28 18:33N 35°54' W 122°47'1527.3
2014-Sep-28 18:00N 35°48' W 122°30'612.1 330 / 91016.010.8 1.019.014.118.0
2014-Sep-28 17:32N 35°46' W 122°36'1111.6
2014-Sep-28 16:33N 35°38' W 122°26'1111.4
2014-Sep-28 15:33N 35°30' W 122°17'1111.0
2014-Sep-28 14:33N 35°22' W 122°07'1211.3
2014-Sep-28 13:31N 35°14' W 121°57'1311.5
2014-Sep-28 12:23N 35°05' W 121°45'9011.1
2014-Sep-28 04:15N 34°17' W 120°13'810.9
2014-Sep-28 03:33N 34°15' W 120°04'1110.7
2014-Sep-28 02:33N 34°12' W 119°51'1010.0
2014-Sep-28 01:33N 34°10' W 119°40'10 9.8
2014-Sep-28 00:33N 34°07' W 119°28'9 9.1
2014-Sep-27 23:33N 34°05' W 119°18'10 9.7
2014-Sep-27 22:33N 34°00' W 119°07'1110.9
2014-Sep-27 21:33N 33°55' W 118°56'35 8.8
2014-Sep-27 17:33N 33°43' W 118°16'1 0.9
2014-Sep-27 16:24N 33°44' W 118°15'0 0.0
2014-Sep-27 14:33N 33°44' W 118°15'0 0.0
2014-Sep-27 13:12N 33°44' W 118°15'0 0.0
2014-Sep-27 12:30N 33°44' W 118°15'0 0.0
2014-Sep-27 11:30N 33°44' W 118°15'0 0.0
2014-Sep-27 10:30N 33°44' W 118°15'0 0.0
2014-Sep-27 09:30N 33°44' W 118°15'0 0.0
2014-Sep-27 08:30N 33°44' W 118°15'0 0.0
2014-Sep-27 07:33N 33°44' W 118°15'0 0.0
2014-Sep-27 06:12N 33°44' W 118°15'0 0.0
2014-Sep-27 05:30N 33°44' W 118°15'0 0.0
2014-Sep-27 04:12N 33°44' W 118°15'0 0.0
2014-Sep-27 03:24N 33°44' W 118°15'0 0.0
2014-Sep-27 02:09N 33°44' W 118°15'0 0.0
2014-Sep-27 00:06N 33°44' W 118°15'0 0.0
2014-Sep-26 23:18N 33°44' W 118°15'0 0.0
2014-Sep-26 22:12N 33°44' W 118°15'0 0.0
2014-Sep-26 21:33N 33°44' W 118°15'0 0.0
2014-Sep-26 20:33N 33°44' W 118°15'0 0.0
2014-Sep-26 19:27N 33°44' W 118°15'0 0.0
2014-Sep-26 18:27N 33°44' W 118°15'0 0.0
2014-Sep-26 17:33N 33°44' W 118°15'0 0.0
2014-Sep-26 16:33N 33°44' W 118°15'0 0.0
2014-Sep-26 15:33N 33°44' W 118°15'0 0.0
2014-Sep-26 14:30N 33°44' W 118°15'0 0.0
2014-Sep-26 13:30N 33°44' W 118°15'0 0.0
2014-Sep-26 12:30N 33°44' W 118°15'0 0.0
2014-Sep-26 11:30N 33°44' W 118°15'0 0.0
2014-Sep-26 10:33N 33°44' W 118°15'0 0.0
2014-Sep-26 09:33N 33°44' W 118°15'0 0.0
2014-Sep-26 08:33N 33°44' W 118°15'0 0.0
2014-Sep-26 07:33N 33°44' W 118°15'0 0.0
2014-Sep-26 06:33N 33°44' W 118°15'0 0.0
2014-Sep-26 05:33N 33°44' W 118°15'0 0.0
2014-Sep-26 04:33N 33°44' W 118°15'0 0.0
2014-Sep-26 03:33N 33°44' W 118°15'0 0.0
2014-Sep-26 02:33N 33°44' W 118°15'0 0.0
2014-Sep-26 01:33N 33°44' W 118°15'0 0.0
2014-Sep-26 00:33N 33°44' W 118°15'0 0.0
2014-Sep-25 23:33N 33°44' W 118°15'0 0.0
2014-Sep-25 22:33N 33°44' W 118°15'0 0.0
2014-Sep-25 21:33N 33°44' W 118°15'0 0.0
2014-Sep-25 20:33N 33°44' W 118°15'0 0.0
2014-Sep-25 19:33N 33°44' W 118°15'0 0.0
2014-Sep-25 18:33N 33°44' W 118°15'0 0.0
2014-Sep-25 17:33N 33°44' W 118°15'0 0.0
2014-Sep-25 16:33N 33°44' W 118°15'0 0.0
2014-Sep-25 15:33N 33°44' W 118°15'0 0.0
2014-Sep-25 14:33N 33°44' W 118°15'0 0.0
2014-Sep-25 13:33N 33°44' W 118°15'0 0.0
2014-Sep-25 12:33N 33°44' W 118°15'0 0.0
2014-Sep-25 11:33N 33°44' W 118°15'0 0.0
2014-Sep-25 10:33N 33°44' W 118°15'0 0.0
2014-Sep-25 09:33N 33°44' W 118°15'0 0.0
2014-Sep-25 08:33N 33°44' W 118°15'0 0.0
2014-Sep-25 07:33N 33°44' W 118°15'0 0.0
2014-Sep-25 06:33N 33°44' W 118°15'0 0.0
2014-Sep-25 05:33N 33°44' W 118°15'0 0.0
2014-Sep-25 04:33N 33°44' W 118°15'0 0.0
2014-Sep-25 03:33N 33°44' W 118°15'0 0.0
2014-Sep-25 02:33N 33°44' W 118°15'0 0.0
2014-Sep-25 01:33N 33°44' W 118°15'0 0.0
2014-Sep-25 00:33N 33°44' W 118°15'0 0.0
2014-Sep-24 23:33N 33°44' W 118°15'0 0.0
2014-Sep-24 22:33N 33°44' W 118°15'0 0.0
2014-Sep-24 21:33N 33°44' W 118°15'0 0.0
2014-Sep-24 20:33N 33°44' W 118°15'0 0.0
2014-Sep-24 19:33N 33°44' W 118°15'0 0.0
2014-Sep-24 18:33N 33°44' W 118°15'0 0.0
2014-Sep-24 17:33N 33°44' W 118°15'0 0.0
2014-Sep-24 16:33N 33°44' W 118°15'0 0.0
2014-Sep-24 15:33N 33°44' W 118°15'0 0.0
2014-Sep-24 14:33N 33°44' W 118°15'0 0.0
2014-Sep-24 13:33N 33°44' W 118°15'0 0.0
2014-Sep-24 12:30N 33°44' W 118°15'0 0.0
2014-Sep-24 11:33N 33°44' W 118°15'0 0.0
2014-Sep-24 10:33N 33°44' W 118°15'0 0.0
2014-Sep-24 09:33N 33°44' W 118°15'0 0.0
2014-Sep-24 08:33N 33°44' W 118°15'0 0.0
2014-Sep-24 07:33N 33°44' W 118°15'0 0.0
2014-Sep-24 06:33N 33°44' W 118°15'  

Dump ship's entire track history